Hourly Weather Roundup
Issued by NWS Central Illinois

Home | Current Version | Previous Version | Text Only | Print | Product List | Glossary On
Versions: 1 2 3 4 5 6 7 8 9 10 11 12 13 14 15 16 17 18 19 20 21 22 23 24 25 26 27 28 29 30 31 32 33 34 35 36 37 38 39 40 41 42 43 44 45 46 47 48 49 50
000
NZUS43 KILX 251410
HWRILX

AREA WEATHER ROUNDUP
NATIONAL WEATHER SERVICE, LINCOLN IL
800 AM CST SAT FEB 25 2017


CITY           SKY/WX    TMP DP  RH WIND       PRES   REMARKS
BLOOMINGTON    LGT SNOW  23  17  78 NW21      29.89R WCI   8
CHAMPAIGN      LGT SNOW  24  17  74 W25G33    29.89R WCI   8
DECATUR        LGT SNOW  24  18  77 NW15G25   29.93R WCI  11
EFFINGHAM      FLURRIES  29  22  74 W17G23    29.97R WCI  17
FLORA          FLURRIES  31  20  62 W14G21    29.98R WCI  21
GALESBURG      SUNNY     20  14  77 W14G24    29.94R WCI   7
JACKSONVILLE   MOSUNNY   24  15  67 W16G25    29.99R WCI  11
LACON          PTSUNNY   24  16  71 W15G21    29.90R WCI  11
LAWRENCEVILLE  FLURRIES  30  20  66 W25G33    29.95R WCI  16
LITCHFIELD     CLOUDY    27  17  66 W22       29.98R WCI  13
$$


CITY           SKY/WX    TMP DP  RH WIND       PRES   REMARKS
LINCOLN        LGT SNOW  25  19  77 W9G21     29.94R WCI  16
MACOMB         SUNNY     22  16  77 NW21      29.99R WCI   6
MATTOON        CLOUDY    25  16  68 NW24G33   29.92R WCI   9
MT CARMEL AP   LGT SNOW  30  21  70 NW24      29.96R WCI  16
OLNEY-NOBLE AP CLOUDY    30  21  69 W17G23    29.97R WCI  18
PARIS          FLURRIES  26  19  75 W29G35    29.91R WCI  10
PEORIA         CLOUDY    23  14  68 NW13G23   29.93R WCI  11
PONTIAC        LGT SNOW  24  19  80 NW25G31   29.87R WCI   8
RANTOUL        FLURRIES  26  19  77 W25G35    29.87R WCI  10
SPRINGFIELD    CLOUDY    26  16  65 W17G28    29.96R WCI  13
TAYLORVILLE    CLOUDY    26  16  65 W21       29.97R WCI  11
$$

...REGIONAL REPORTS...


CITY           SKY/WX    TMP DP  RH WIND       PRES   REMARKS
CHICAGO O`HARE FLURRIES  23  14  68 NW18      29.77R WCI   9
KANKAKEE       CLOUDY    24  16  71 W16G24    29.83R WCI  10
MOLINE         SUNNY     22  12  65 W16G25    29.92R WCI   8
MOUNT STERLING SUNNY     22  15  74 W16G24    29.99R WCI   9
MOUNT VERNON   FLURRIES  29  20  69 W10G21    30.01R WCI  20
PITTSFIELD     MOSUNNY   25  15  68 W12G23    30.03R WCI  14
QUINCY         MOSUNNY   22  15  75 NW16      30.01R WCI   8
ROCKFORD       PTSUNNY   21  14  74 W14       29.83R WCI   8
$$


CITY           SKY/WX    TMP DP  RH WIND       PRES   REMARKS
BURLINGTON     SUNNY     21  14  74 NW13G23   29.97R WCI   9
CEDAR RAPIDS   SUNNY     16  12  84 NW17G24   29.94R WCI   0
DES MOINES     MOSUNNY   18   9  68 NW17      30.04R WCI   3
KIRKSVILLE     SUNNY     20  13  74 NW12      30.05R WCI   8
OTTUMWA        SUNNY     18  10  71 NW15      30.02R WCI   4
ST LOUIS       PTSUNNY   28  14  55 W18G32    30.02R WCI  15
$$


CITY           SKY/WX    TMP DP  RH WIND       PRES   REMARKS
TERRE HAUTE    FLURRIES  28  16  60 W22G33    29.90R WCI  14
EVANSVILLE     CLOUDY    32  19  58 W14G25    29.98R WCI  22
INDIANAPOLIS   CLOUDY    29  21  72 W25G35    29.82R WCI  14
LAFAYETTE      CLOUDY    26  21  81 W29G38    29.81R WCI  10
MADISON        LGT SNOW  17  10  74 W13G25    29.78R WCI   4
MILWAUKEE      PTSUNNY   22  13  68 NW15G24   29.72R WCI   9
$$





USA.gov is the U.S. government's official web portal to all federal, state and local government web resources and services.